[Date Prev][Date Next][Thread Prev][Thread Next] - [Date Index][Thread Index][Author Index]

2 Line ISS Keps 7-2



ISS
1 25544U 98067A   01183.14432870  .00041550  00000-0  44155-3 0  1575
2 25544  51.5728  13.0216 0016412 231.8759 275.3098 15.63451683149417


----
Via the sarex mailing list at AMSAT.ORG courtesy of AMSAT-NA.
To unsubscribe, send "unsubscribe sarex" to Majordomo@amsat.org



AMSAT Top AMSAT Home